COSMOS 1455

Last updated on Thu Sep 04 2025 00:02:13 GMT+0000 (Coordinated Universal Time)

1 14032U 83037A 25246.60015627 .06003735 -12439-5 57663-3 0 9996 2 14032 82.4714 318.3821 0010533 262.0749 97.9354 16.38376308318910

Satellite not in orbit

COSMOS 1455